sat.trackr.live / text

‹ back to catalog

STARLINK-3125

NORAD 49451 · 2021-104AV

PAYLOAD ACTIVE UNKNOWN

§ Identity

Operator
Country
US
Launch date
2021-11-13
Launch site
AFETR
Launch vehicle
Mass (kg)
RCS (m²)

Purposes: comms

External: N2YO · Heavens-Above · Gunter

§ Orbital elements

Epoch: 2026-09-19T23:08:11.580288Z

Period
93.90 min
Inclination
53.1602°
Eccentricity
0.0001253
Mean motion
15.33552141 rev/d
Perigee alt
464.4 km
Apogee alt
466.1 km
Semi-major
6,843.4 km
B*
-3.1315e-5
RAAN
54.4332°
Arg perigee
82.6287°
Mean anomaly
277.4858°
Rev number
26,827

§ Raw data

STARLINK-31251 49451U 21104AV  26262.96402292 -.00001402  00000+0 -31315-4 0  99982 49451  53.1602  54.4332 0001253  82.6287 277.4858 15.33552141268273

JSON: /api/v1/satellites/49451 · /tle

For live sub-satellite position, see the globe view (requires WebGL).

§ Visibility from observer

Set your observer location to see the next 7 days of passes ≥ 10°. The values pass through the URL so the page stays shareable.

No JS? Fill the form by hand. The geolocation button needs JavaScript.